Jackson, WY

8:19 AM MDT on April 28, 2017 (GMT -0600)
Jackson Hole

Weather History for KJAC - December, 2013

Change the Weather History Date:

Thursday, December 26, 2013

  Actual Average Record
Temperature  
Mean Temperature 12 °F -  
Max Temperature 23 °F 23 °F 42 °F (1980)
Min Temperature 1 °F -1 °F -26 °F (1990)
Degree Days  
Heating Degree Days 53    
Moisture  
Dew Point 4 °F    
Average Humidity 88    
Maximum Humidity 100    
Minimum Humidity 63    
Precipitation  
Precipitation 0.00 in - - ()
Sea Level Pressure  
Sea Level Pressure 30.43 in    
Wind  
Wind Speed 4 mph (North)    
Max Wind Speed 9 mph    
Max Gust Speed -    
Visibility 10 miles    
Events      
Averages and records for this station are not official NWS values.
T = Trace of Precipitation, MM = Missing Value Source: NWS Daily Summary

Daily Weather History Graph

Daily Weather History Graph

Search for Another Location

Airport or City:

Trip Planner

Search our weather history database for the weather conditions in past years. The results will help you decide how hot, cold, wet, or windy it might be!

Date:

Astronomy

Dec. 26, 2013 Rise Set
Actual Time 7:55 AM MST 4:52 PM MST
Civil Twilight 7:22 AM MST 5:25 PM MST
Nautical Twilight 6:46 AM MST 6:01 PM MST
Astronomical Twilight 6:11 AM MST 6:36 PM MST
Moon 1:19 AM MST (12/26) 12:37 PM MST (12/26)
Length of Visible Light 10h 02m
Length of Day
8h 57m
Last Quarter, 38% of the Moon is Illuminated
Dec 26
Last Quarter
Jan 1
New
Jan 7
First Quarter
Jan 15
Full
Jan 23
Last Quarter

Hourly Weather History & Observations

Time (MST) Temp. Windchill Dew Point Humidity Pressure Visibility Wind Dir Wind Speed Gust Speed Precip Events Conditions
12:15 AM 6.8 °F -3.5 °F 3.2 °F 85% 30.42 in 10.0 mi NNE 5.8 mph - N/A   Clear
12:35 AM 6.8 °F -5.9 °F 5.0 °F 92% 30.42 in 10.0 mi North 8.1 mph - N/A   Partly Cloudy
12:55 AM 6.8 °F -3.5 °F 3.2 °F 85% 30.42 in 10.0 mi North 5.8 mph - N/A   Partly Cloudy
1:15 AM 6.8 °F - 3.2 °F 85% 30.43 in 10.0 mi Calm Calm - N/A   Clear
1:35 AM 6.8 °F - 5.0 °F 92% 30.43 in 10.0 mi Calm Calm - N/A   Clear
1:55 AM 5.0 °F -4.1 °F 3.2 °F 92% 30.44 in 10.0 mi WNW 4.6 mph - N/A   Clear
2:15 AM 5.0 °F -4.1 °F 3.2 °F 92% 30.44 in 10.0 mi WSW 4.6 mph - N/A   Scattered Clouds
2:35 AM 6.8 °F - 5.0 °F 92% 30.44 in 10.0 mi Calm Calm - N/A   Partly Cloudy
2:55 AM 1.4 °F - -0.4 °F 92% 30.44 in 10.0 mi Calm Calm - N/A   Mostly Cloudy
3:15 AM 1.4 °F -9.9 °F -0.4 °F 92% 30.44 in 10.0 mi NNE 5.8 mph - N/A   Scattered Clouds
3:35 AM 1.4 °F -12.5 °F -0.4 °F 92% 30.44 in 10.0 mi NNW 8.1 mph - N/A   Partly Cloudy
3:55 AM 1.4 °F -12.5 °F -0.4 °F 92% 30.44 in 10.0 mi North 8.1 mph - N/A   Clear
4:15 AM 1.4 °F - -0.4 °F 92% 30.44 in 10.0 mi Calm Calm - N/A   Clear
4:35 AM 1.4 °F - 1.4 °F 100% 30.43 in 10.0 mi Calm Calm - N/A   Clear
4:55 AM 1.4 °F -6.2 °F -0.4 °F 92% 30.44 in 10.0 mi NNE 3.5 mph - N/A   Scattered Clouds
5:15 AM 1.4 °F -6.2 °F -0.4 °F 92% 30.44 in 10.0 mi NNE 3.5 mph - N/A   Overcast
5:35 AM 1.4 °F - -0.4 °F 92% 30.43 in 10.0 mi Calm Calm - N/A   Overcast
6:35 AM 3.2 °F -7.8 °F 1.4 °F 92% 30.44 in 10.0 mi North 5.8 mph - N/A   Overcast
6:51 AM 5.0 °F -5.6 °F 3.2 °F 92% 30.44 in 10.0 mi North 5.8 mph - N/A   Overcast
7:52 AM 6.8 °F - 5.0 °F 92% 30.44 in 10.0 mi Calm Calm - N/A   Mostly Cloudy
8:51 AM 8.6 °F - 6.8 °F 92% 30.45 in 10.0 mi Calm Calm - N/A   Scattered Clouds
9:51 AM 10.4 °F - 6.8 °F 85% 30.46 in 10.0 mi Calm Calm - N/A   Partly Cloudy
10:51 AM 14.0 °F - 8.6 °F 79% 30.46 in 10.0 mi Calm Calm - N/A   Partly Cloudy
11:51 AM 17.6 °F - 10.4 °F 73% 30.44 in 10.0 mi Calm Calm - N/A   Partly Cloudy
12:57 PM 19.4 °F - 10.4 °F 68% 30.41 in 10.0 mi Calm Calm - N/A   Partly Cloudy
1:53 PM 23.0 °F - 12.2 °F 63% 30.39 in 10.0 mi Calm Calm - N/A   Partly Cloudy
2:51 PM 23.0 °F - 12.2 °F 63% 30.38 in 10.0 mi Calm Calm - N/A   Partly Cloudy
3:51 PM 23.0 °F - 12.2 °F 63% 30.38 in 10.0 mi Calm Calm - N/A   Clear
5:51 PM 12.2 °F 6.1 °F 8.6 °F 85% 30.40 in 10.0 mi NE 3.5 mph - N/A   Clear
6:53 PM 6.8 °F -5.9 °F 5.0 °F 92% 30.39 in 10.0 mi North 8.1 mph - N/A   Clear
7:51 PM 8.6 °F -4.7 °F 6.8 °F 92% 30.40 in 10.0 mi North 9.2 mph - N/A   Clear
8:55 PM 5.0 °F -6.9 °F 3.2 °F 92% 30.41 in 10.0 mi North 6.9 mph - N/A   Clear
9:15 PM 6.8 °F -2.0 °F 3.2 °F 85% 30.41 in 10.0 mi NE 4.6 mph - N/A   Clear
9:35 PM 6.8 °F -3.5 °F 5.0 °F 92% 30.42 in 10.0 mi NNE 5.8 mph - N/A   Clear
9:55 PM 5.0 °F -6.9 °F 3.2 °F 92% 30.42 in 10.0 mi North 6.9 mph - N/A   Clear
10:15 PM 5.0 °F -4.1 °F 3.2 °F 92% 30.42 in 10.0 mi NNE 4.6 mph - N/A   Clear
10:35 PM 6.8 °F -2.0 °F 5.0 °F 92% 30.42 in 10.0 mi North 4.6 mph - N/A   Clear
10:55 PM 5.0 °F -8.1 °F 3.2 °F 92% 30.43 in 10.0 mi North 8.1 mph - N/A   Clear
11:15 PM 5.0 °F -5.6 °F 3.2 °F 92% 30.43 in 10.0 mi North 5.8 mph - N/A   Clear
11:35 PM 3.2 °F -4.2 °F 1.4 °F 92% 30.43 in 10.0 mi North 3.5 mph - N/A   Clear
11:55 PM 3.2 °F -7.8 °F 3.2 °F 100% 30.43 in 10.0 mi North 5.8 mph - N/A   Clear